Wind_Speed
12 15 14 11 9 5 4 7 9 7 5 4 5 3 8 8 5 3 4 4 4 4 3 2 2 5 4 6 13 15 15 17 16 14 13 11 11 11 10 11 12 14 18 20 21 23 22 21 22 21 23 24 24 25 24 23 22 21 21 20 19 19 18
11 14 14 13 13 8 3 5 7 7 5 3 4 4 5 7 5 3 4 4 4 3 2 4 5 1 4 6 12 15 15 17 17 15 13 12 11 11 10 9 11 13 17 19 20 22 23 23 22 21 24 25 23 24 24 23 23 22 21 20 19 19 18
10 11 10 11 13 14 8 4 3 6 5 3 3 3 4 5 4 2 3 5 3 2 2 5 5 3 7 10 12 15 16 16 16 15 15 14 11 7 5 4 5 9 16 19 20 22 22 23 23 21 23 24 21 22 23 23 22 22 21 20 19 19 18
8 9 8 8 10 12 10 6 4 6 5 3 3 3 4 4 1 1 0 3 2 3 3 7 6 7 13 14 13 15 17 17 16 15 14 12 7 3 2 4 6 10 16 20 20 21 22 22 23 23 23 23 21 20 21 21 21 21 21 19 19 18 17
6 7 8 8 9 10 9 7 7 7 6 5 5 5 5 3 2 2 2 0 1 3 2 7 12 13 11 12 14 13 14 16 15 15 14 10 8 7 6 6 5 8 14 22 22 20 20 20 21 22 21 21 21 20 20 20 20 21 20 19 20 18 17
6 7 9 10 12 10 10 9 8 7 6 8 7 6 6 5 3 3 3 1 1 2 2 2 9 11 4 9 12 12 12 14 14 14 13 9 8 9 6 4 4 2 6 11 15 12 13 16 18 20 20 19 19 18 19 19 18 19 18 19 21 20 18
9 12 8 13 14 14 13 12 10 8 6 7 7 6 5 5 4 4 4 1 2 1 4 1 1 5 5 4 8 10 11 12 13 12 11 7 5 6 5 6 6 3 1 5 12 7 5 8 11 8 7 11 14 14 16 16 15 16 17 17 19 20 18
10 16 11 12 14 14 13 12 12 10 9 9 8 6 4 3 3 3 0 0 1 1 1 3 6 6 1 3 7 10 11 10 11 12 10 7 8 11 9 5 2 3 7 11 14 9 7 14 16 7 1 1 8 12 14 14 11 11 14 15 16 17 17
6 8 8 9 12 9 9 9 12 13 13 13 11 9 3 3 3 3 2 1 3 2 1 6 10 6 6 4 5 8 9 9 11 12 10 8 10 11 9 7 3 4 9 10 11 10 12 17 19 15 10 7 8 13 14 14 12 11 12 14 16 16 16
6 4 3 3 4 7 8 11 13 16 15 14 12 9 5 4 4 5 3 3 7 7 5 8 11 6 2 4 3 5 8 10 10 11 11 10 11 10 9 9 5 5 7 9 11 10 12 17 17 16 17 15 13 14 13 12 14 16 13 13 15 16 16
8 7 8 11 11 7 9 12 15 13 15 14 11 9 6 3 3 3 1 6 10 8 8 9 8 7 6 2 3 4 5 10 11 10 11 12 11 9 9 9 6 5 6 5 7 7 9 14 15 13 16 17 15 14 13 11 13 16 15 13 14 15 16
12 13 13 15 15 12 8 9 14 15 12 14 12 13 7 1 1 2 3 9 11 6 8 10 5 2 6 4 2 4 3 7 10 11 13 15 14 11 12 12 10 9 8 5 4 4 5 8 11 12 13 15 15 13 12 11 11 14 14 13 12 13 14
12 13 14 15 14 12 13 11 14 16 14 12 14 16 12 6 2 6 9 13 13 5 6 11 7 5 5 5 3 1 2 4 8 11 14 16 16 15 15 15 14 12 11 9 7 6 5 4 5 6 8 12 14 12 11 12 11 12 13 12 11 11 12
11 12 13 16 14 12 16 16 13 13 15 15 16 16 15 13 6 14 18 16 14 7 5 10 10 9 8 5 4 4 5 2 3 9 13 14 15 16 16 15 14 13 12 12 12 11 9 6 4 3 3 6 9 7 8 10 9 9 10 12 13 12 12
9 12 13 14 16 16 16 13 8 8 9 10 12 11 10 10 5 13 20 16 12 6 5 8 9 9 9 6 7 7 2 4 3 2 7 9 9 11 13 12 12 12 12 11 12 11 10 8 7 5 3 3 4 4 5 5 5 5 5 7 9 10 10
8 9 7 9 11 10 5 8 15 17 15 15 14 9 6 7 4 7 14 11 7 5 7 8 7 8 8 7 7 6 5 4 4 4 7 7 6 6 7 9 11 10 11 11 11 11 11 9 7 5 4 3 2 2 5 5 6 6 6 6 7 8 9
7 6 7 14 11 2 5 9 13 14 13 13 15 15 17 17 10 2 5 6 7 7 7 7 7 7 6 6 5 5 8 9 6 7 9 5 2 6 8 9 10 10 10 11 11 12 13 12 11 9 9 11 12 9 5 3 4 4 4 5 6 6 7
7 7 4 6 5 1 3 6 8 10 13 15 15 15 17 17 14 9 6 5 5 6 7 8 9 8 7 8 9 8 9 9 7 8 6 1 2 9 12 11 11 13 14 14 14 14 14 14 13 13 13 14 14 14 12 9 7 6 5 2 1 2 4
4 5 5 2 1 1 2 5 7 6 10 13 14 16 17 16 14 11 8 5 5 8 11 11 10 9 9 11 11 10 10 9 7 5 5 6 9 11 12 11 12 14 15 16 15 14 13 13 12 11 12 12 13 14 13 12 12 11 10 10 7 3 1
4 2 2 2 1 2 2 5 5 4 6 10 12 13 13 13 12 10 7 4 4 11 12 8 8 11 12 12 11 9 9 9 8 7 8 10 11 11 12 13 13 15 16 15 14 12 11 11 11 11 11 11 13 14 14 15 16 16 16 16 14 12 9
4 1 2 1 1 2 2 3 5 3 3 6 9 7 8 10 9 7 6 6 4 8 9 7 8 12 13 12 10 10 11 11 11 12 13 13 13 13 14 16 17 18 18 16 14 12 11 12 12 12 11 11 13 15 15 16 18 19 21 20 18 17 15
2 0 2 3 3 2 1 2 5 5 5 3 7 7 7 9 7 7 7 6 8 3 5 7 9 11 10 9 8 9 12 13 13 14 15 15 15 14 15 17 18 19 20 19 17 15 13 13 13 12 12 13 15 16 16 16 17 19 21 20 18 18 17
2 1 1 2 2 2 2 4 5 4 5 5 2 3 6 7 6 8 8 3 4 5 3 2 4 6 7 6 4 5 9 10 11 11 12 14 15 14 15 16 16 18 20 21 20 18 16 14 12 13 13 14 15 15 15 15 15 16 18 18 19 19 17
3 3 2 0 1 2 3 6 6 5 5 7 6 3 4 6 7 9 7 5 5 4 4 5 5 3 3 5 3 3 7 10 11 11 11 12 14 15 16 16 16 16 16 16 17 17 16 14 12 11 12 12 13 14 14 14 14 13 15 16 17 16 15
3 4 3 2 0 4 7 8 8 7 6 6 2 3 2 4 6 9 9 7 5 4 5 5 2 1 3 6 6 6 7 9 11 12 12 13 14 15 16 15 13 13 13 13 15 15 14 12 10 10 10 12 14 14 14 14 13 12 12 13 13 12 12
1 2 3 3 1 4 8 8 8 9 5 0 3 3 2 4 6 9 9 7 5 4 5 5 4 6 8 9 8 8 8 8 10 12 13 13 14 15 14 13 13 13 13 13 14 13 12 11 10 10 10 12 13 14 14 13 12 11 10 9 10 10 10
2 2 3 3 1 3 8 7 5 6 4 4 4 2 4 6 7 7 8 6 5 6 6 8 9 10 11 11 9 9 8 7 10 13 12 10 12 14 13 13 13 13 13 12 12 12 11 11 11 11 10 11 11 12 12 12 11 11 9 8 9 9 8
2 1 2 3 2 3 6 3 3 6 6 5 3 3 6 7 6 6 6 6 6 6 7 8 10 9 10 10 9 9 7 5 8 13 12 11 12 13 12 12 13 12 11 12 12 12 11 11 11 10 10 10 11 11 11 10 9 9 9 8 8 8 7
3 3 4 5 4 5 7 7 7 7 8 7 7 7 7 6 6 5 5 6 7 6 6 7 8 8 8 8 7 7 8 7 8 10 12 12 13 13 13 14 14 12 11 11 11 12 11 11 10 10 10 10 10 10 9 8 8 7 8 8 8 8 7
8 7 6 6 7 7 7 8 8 7 8 9 9 9 8 7 7 6 5 6 7 6 5 5 5 5 5 6 6 6 7 8 9 9 11 12 12 13 13 13 13 11 10 10 11 11 11 11 10 10 9 9 9 9 7 7 7 7 7 8 8 6 6
7 6 6 7 8 7 7 8 7 7 8 8 7 7 7 7 7 7 7 6 6 6 6 5 5 4 2 3 5 5 5 6 7 7 9 11 12 13 13 11 10 10 10 10 11 11 10 10 10 10 9 9 8 7 7 7 6 6 5 5 6 6 5
5 6 8 8 7 7 7 7 7 6 7 7 7 7 7 7 7 8 8 7 6 6 6 6 6 6 4 3 4 5 5 5 4 5 7 8 10 13 12 11 10 10 10 10 11 10 10 10 10 9 9 8 7 6 6 6 5 4 3 2 3 4 5
6 8 9 7 6 7 7 8 8 7 6 6 6 7 7 8 8 7 8 9 8 7 7 6 5 7 7 6 5 5 6 6 5 6 6 7 10 11 10 9 9 10 11 11 10 10 10 9 9 9 8 8 7 6 5 5 4 4 3 2 2 3 4
4 7 8 5 4 5 7 8 7 6 6 7 7 7 7 8 7 7 7 9 8 9 9 8 7 7 6 5 5 5 4 6 7 7 5 6 8 9 9 9 9 10 11 11 10 10 10 9 9 8 7 7 7 6 5 4 3 4 3 2 3 4 5
6 8 7 4 3 6 8 8 7 6 6 6 6 6 6 6 7 6 7 7 7 7 8 9 9 7 4 6 9 7 4 5 7 7 6 6 7 8 9 10 10 10 10 10 11 11 10 10 10 9 8 7 7 6 6 5 4 4 2 1 2 4 5
8 8 6 4 5 8 9 7 6 6 4 5 6 6 6 6 7 7 7 6 6 6 6 8 9 8 6 6 7 7 6 5 5 4 4 6 7 9 9 9 10 11 10 10 10 10 10 10 10 9 8 8 7 7 6 5 4 4 2 1 1 4 4
7 7 7 6 7 9 8 6 7 6 3 4 6 7 7 7 7 6 6 6 6 6 5 6 8 8 8 7 6 4 5 6 4 2 3 4 5 7 8 9 10 10 10 10 10 9 9 10 9 9 9 8 7 7 6 5 4 4 2 1 3 5 5
Wind_Direction
178 189 228 230 221 227 173 207 228 214 190 203 250 190 168 228 256 168 169 158 169 190 177 201 279 316 299 182 178 182 179 181 184 189 199 201 194 191 191 185 182 180 181 182 173 172 181 181 179 180 172 167 167 166 171 174 173 174 174 176 178 178 180
177 183 223 225 223 239 181 198 226 207 193 200 255 264 209 228 254 201 162 137 155 189 165 164 167 231 290 228 190 184 180 178 183 191 194 197 197 190 189 190 183 178 181 181 172 173 180 179 180 177 165 166 168 168 172 175 175 177 176 176 178 179 182
178 170 217 224 224 242 238 232 239 211 214 200 193 245 248 233 248 230 149 124 141 240 200 156 150 189 231 221 194 183 181 181 186 190 191 194 192 178 174 183 192 187 183 178 169 171 179 178 177 171 161 164 170 172 176 179 179 178 177 177 177 179 184
177 162 208 219 209 223 237 254 255 225 218 206 202 234 261 254 287 333 261 117 155 234 163 122 138 207 220 208 193 186 183 183 188 188 189 187 165 128 164 181 211 211 187 174 169 173 179 179 173 166 164 169 174 177 179 180 181 181 180 181 178 179 186
216 195 196 217 211 194 206 229 228 218 188 171 214 243 245 240 114 139 247 324 219 227 128 122 164 190 221 215 189 181 184 183 186 186 183 175 158 166 187 179 195 217 192 177 172 172 175 172 166 165 169 175 176 178 180 181 181 183 185 183 179 183 187
237 226 181 206 235 210 195 212 222 226 196 172 198 224 224 224 188 193 231 179 174 202 104 133 179 165 194 231 191 175 183 183 187 189 177 165 163 171 179 142 96 344 253 190 157 155 175 169 161 166 171 174 178 180 179 183 184 184 187 183 179 184 187
280 283 227 198 228 234 215 213 220 231 229 201 205 214 206 214 216 224 247 174 121 72 105 107 319 112 126 194 182 175 180 179 187 181 157 141 123 100 73 56 79 97 262 122 110 118 187 141 120 141 162 163 175 179 174 178 188 189 190 185 178 182 186
287 293 270 195 204 235 232 216 210 223 242 231 231 246 211 202 231 211 327 2 183 324 98 86 25 19 99 161 171 180 174 172 180 159 134 126 100 80 75 70 77 115 99 95 102 121 135 108 105 120 260 155 155 168 178 181 186 195 196 190 181 182 186
259 267 264 191 181 216 245 234 207 206 231 237 245 269 244 175 216 187 152 225 163 154 145 86 65 23 294 258 192 177 158 162 169 148 136 134 108 99 115 125 96 62 74 86 100 114 123 123 130 147 173 196 167 161 177 177 173 194 205 194 187 185 185
241 226 274 255 204 206 226 246 228 201 207 228 244 257 240 211 217 207 204 174 135 128 130 95 85 97 263 287 233 188 157 157 159 145 142 137 121 121 129 121 103 76 77 92 106 115 135 145 147 144 151 170 169 158 166 168 172 190 195 185 186 189 189
272 288 305 305 297 258 208 228 245 223 200 212 242 252 239 231 224 236 32 120 135 136 127 105 91 111 110 55 298 264 173 155 152 143 137 133 133 138 133 131 143 124 89 80 98 110 136 152 161 154 147 156 159 157 166 169 171 180 180 177 182 184 187
266 275 282 293 296 285 251 225 242 252 220 196 221 244 234 113 189 260 51 106 125 120 106 106 106 123 110 115 239 282 233 165 150 142 141 142 145 146 141 144 154 146 135 142 130 114 128 145 155 155 148 151 153 155 167 171 171 176 177 179 180 180 185
266 268 268 273 274 274 280 254 230 247 247 210 211 227 224 222 178 117 105 108 112 107 101 110 140 174 127 134 172 305 287 180 153 147 148 151 151 150 146 144 149 153 151 154 155 155 164 152 137 141 144 149 155 162 172 178 183 184 180 181 181 184 191
278 276 264 258 254 257 270 264 237 235 247 241 235 227 218 227 198 113 107 103 100 109 123 118 140 151 129 139 133 59 9 321 171 155 152 155 155 150 146 141 143 149 151 150 153 160 167 161 141 137 136 139 151 167 180 186 194 195 187 187 188 189 194
270 269 263 249 242 247 261 278 316 333 321 317 295 260 229 240 229 108 104 101 97 109 125 119 131 131 127 144 128 103 57 332 349 114 129 132 132 129 132 134 134 139 140 141 147 151 154 156 155 165 196 186 173 192 202 201 213 217 200 197 201 202 201
251 253 307 317 275 259 294 2 10 0 357 12 4 345 4 354 333 112 111 107 108 121 126 126 127 121 124 132 122 119 122 89 44 46 71 75 79 96 114 122 123 128 130 131 137 138 133 131 133 143 162 147 114 181 205 211 232 240 236 238 242 240 234
264 249 17 360 328 318 51 24 16 10 11 29 31 27 28 19 7 57 114 111 121 131 134 128 110 96 93 90 88 93 103 104 92 75 75 64 72 102 100 96 96 99 102 102 102 100 93 87 82 82 89 87 74 70 92 144 194 212 230 245 248 250 252
282 291 343 351 334 59 59 27 35 34 33 40 42 39 32 24 26 45 56 63 96 114 116 106 94 91 84 73 69 69 84 96 85 74 85 124 91 92 91 85 81 80 78 75 75 78 77 76 74 72 76 83 83 82 85 92 102 103 95 104 177 213 224
267 304 299 279 102 119 328 31 68 71 53 53 50 41 32 24 29 40 45 43 54 72 85 95 100 99 91 82 77 71 76 93 98 94 120 128 105 97 95 91 87 83 77 71 68 67 65 68 72 72 74 81 86 89 89 85 82 80 80 76 67 63 146
253 253 292 283 123 161 303 11 45 96 86 67 51 35 26 24 27 29 24 17 69 82 86 107 123 109 97 86 80 79 86 98 106 105 102 101 100 101 101 98 93 87 84 83 82 76 66 66 68 71 77 83 85 85 85 86 85 85 84 78 68 63 64
266 218 102 271 264 149 139 24 32 53 62 77 88 68 32 31 37 38 21 344 4 94 114 144 127 103 93 85 76 80 89 88 86 88 88 89 91 95 98 98 93 90 90 89 87 84 79 75 74 75 80 84 83 79 78 84 90 91 89 83 76 73 71
263 288 127 176 191 174 187 13 32 29 8 47 125 120 63 48 56 73 67 3 339 29 146 164 131 101 85 80 75 76 84 83 83 86 88 90 92 93 97 101 100 101 103 103 100 96 89 83 81 83 86 85 83 78 74 77 83 85 83 81 79 77 75
163 140 217 211 202 224 274 338 0 18 3 333 255 139 74 60 72 84 93 83 10 18 17 27 68 84 91 95 85 69 81 89 92 93 94 96 98 96 96 100 102 105 110 113 112 108 101 95 93 93 94 93 90 86 80 76 74 72 73 77 80 78 75
164 164 173 347 287 279 320 335 334 2 3 314 278 161 74 34 61 85 93 102 97 93 81 48 26 22 93 112 126 107 101 105 103 103 103 103 103 101 99 100 104 109 112 110 106 104 103 104 103 101 100 97 94 92 87 81 76 73 71 74 77 75 73
182 174 149 104 225 292 319 326 327 337 329 301 284 129 78 15 60 88 87 86 94 107 116 110 119 221 121 115 124 117 107 110 111 111 111 108 106 105 105 110 115 114 108 100 95 95 95 98 101 99 97 96 94 94 92 87 86 86 80 75 74 72 71
154 124 102 90 184 282 304 313 332 340 330 34 81 87 87 48 63 81 85 88 94 91 99 107 120 134 128 126 129 121 113 117 116 115 116 115 110 107 107 111 112 107 104 102 100 100 99 99 100 98 95 94 95 97 97 96 97 97 89 80 79 78 76
84 97 103 114 151 310 315 307 334 8 33 120 126 110 85 65 57 72 80 78 73 74 85 98 108 123 129 131 133 128 126 130 126 126 128 123 118 118 118 116 112 108 110 111 106 105 102 96 95 97 95 93 91 91 93 97 102 103 97 91 87 85 84
90 134 107 119 137 30 15 23 73 60 70 110 126 94 82 70 62 70 72 71 79 84 91 101 110 120 128 131 132 132 136 135 129 133 135 131 129 130 127 124 122 117 114 111 103 97 91 85 87 92 93 92 88 81 82 89 99 104 105 106 100 91 89
110 129 101 107 115 82 66 82 95 84 77 81 78 75 77 73 72 74 65 65 76 89 108 119 121 124 130 133 130 133 141 135 128 135 139 136 136 135 130 126 122 115 112 110 104 99 95 92 93 93 94 95 92 85 82 85 88 92 97 102 102 96 89
110 107 109 113 104 92 84 79 77 73 70 69 69 71 69 66 72 80 81 76 71 70 79 91 91 95 118 136 136 138 139 131 134 144 143 139 136 134 132 129 123 121 124 119 112 111 111 108 107 105 103 99 94 93 95 91 85 85 88 92 95 95 90
131 116 122 121 109 111 115 101 88 80 75 72 74 76 72 67 68 69 73 83 91 87 79 77 79 80 84 120 124 120 108 112 128 136 136 142 141 133 132 135 132 132 134 125 120 120 118 115 113 110 108 107 107 110 109 103 98 95 95 102 106 106 105
124 115 121 122 118 123 122 110 102 94 85 82 82 86 88 81 72 68 64 64 74 87 90 98 117 131 134 120 118 122 111 107 117 114 117 131 130 122 128 136 133 129 129 126 126 123 116 114 115 115 116 119 120 116 107 104 107 105 100 110 121 130 137
124 131 136 142 139 129 112 96 91 88 87 85 75 74 80 75 68 69 68 62 58 62 71 80 95 112 125 138 150 149 134 119 114 113 116 122 120 122 132 137 130 130 135 137 137 132 127 126 126 126 129 128 123 117 108 104 107 105 96 83 82 99 110
147 137 138 143 140 128 115 104 98 95 96 92 78 66 67 66 61 59 64 66 60 52 53 62 74 88 109 120 106 97 109 121 120 120 128 137 135 137 145 146 143 144 146 147 145 139 137 138 137 135 138 141 139 133 122 115 114 108 102 99 94 78 66
109 111 113 104 92 105 109 106 101 96 92 92 88 74 65 67 66 59 57 59 60 53 47 50 61 70 81 93 94 93 103 121 123 131 151 164 161 159 159 159 156 153 152 152 149 146 146 147 148 150 153 154 150 140 132 135 139 130 127 154 134 105 74
112 115 98 78 91 109 114 111 102 92 79 87 98 89 69 63 62 61 61 54 49 56 53 48 55 57 50 72 104 126 139 127 117 139 171 178 178 175 174 173 168 164 163 160 154 154 157 156 156 158 158 156 152 144 143 148 147 145 163 212 152 122 102
108 111 96 92 104 112 119 121 110 97 68 74 90 82 65 55 44 45 63 60 46 52 56 47 50 50 42 46 69 100 131 132 121 145 188 188 188 189 190 185 176 171 171 168 164 164 166 165 164 162 157 154 152 147 146 149 149 152 164 101 95 104 101
Height
724 734 732 722 735 749 747 747 756 751 740 755 779 787 787 789 799 809 808 806 799 791 787 780 778 780 773 768 769 770 773 774 776 780 779 777 777 776 777 778 779 781 783 786 788 792 795 797 800 803 805 809 811 814 817 819 822 824 826 828 830 832 834
727 724 729 724 724 731 746 757 749 736 739 751 769 788 789 789 803 802 794 802 806 804 801 786 781 788 784 777 773 771 773 775 778 779 777 777 776 777 779 778 778 780 782 785 788 791 794 796 799 802 804 808 811 813 816 818 820 822 824 826 828 831 833
729 719 734 741 729 721 733 741 733 739 764 773 774 790 797 798 807 800 786 795 810 812 799 787 789 793 787 781 775 773 774 774 776 777 777 778 777 780 783 781 780 781 782 785 787 790 793 795 798 801 804 807 810 813 815 817 819 821 823 825 827 829 831
728 730 743 754 747 733 729 733 734 739 757 771 776 781 782 789 809 815 802 801 809 802 785 784 798 797 786 781 774 770 771 770 772 774 775 778 779 782 785 784 783 783 782 784 786 790 793 794 798 800 803 807 809 812 815 816 819 820 822 824 825 828 830
735 744 745 748 747 743 744 750 751 746 746 758 771 771 764 774 804 824 822 819 808 785 773 781 791 789 782 776 770 768 767 767 769 771 773 777 780 782 783 784 785 784 783 783 786 790 793 795 798 800 803 807 809 811 814 816 818 819 821 822 824 827 828
748 743 732 732 734 735 743 749 748 745 745 757 777 782 765 759 781 796 803 817 806 774 767 773 772 777 782 776 769 767 766 767 768 769 773 776 778 780 782 784 787 788 788 787 787 791 795 797 798 801 804 806 809 811 813 815 817 818 820 821 823 825 827
751 737 721 724 728 724 729 735 736 737 741 750 770 781 767 759 768 767 772 800 800 771 764 769 766 774 782 776 767 764 766 767 766 768 773 776 778 781 784 786 789 792 795 792 790 795 801 801 799 803 807 808 809 811 812 815 817 818 820 820 822 824 825
747 735 720 718 722 726 731 730 728 735 739 738 744 749 750 759 768 766 778 806 804 776 765 768 768 772 776 771 765 763 765 766 766 770 774 776 782 787 789 791 792 793 795 794 794 798 802 802 802 806 812 813 811 811 812 814 816 818 820 820 822 823 824
770 755 743 733 731 735 739 730 724 731 735 734 738 737 742 759 764 764 784 805 797 775 766 770 773 778 780 776 768 762 764 766 767 771 776 779 784 789 792 795 796 794 794 796 798 798 799 801 803 805 810 814 814 812 813 814 815 818 821 821 821 823 824
791 780 772 760 747 741 740 733 725 728 731 737 745 745 752 765 760 754 771 786 783 772 768 774 779 785 791 790 778 766 762 766 768 772 779 783 786 790 793 795 796 795 795 797 798 798 799 801 803 805 808 811 813 813 813 814 816 818 820 821 821 822 823
785 780 773 759 747 743 743 739 730 727 728 734 742 747 755 759 753 759 770 773 777 776 772 777 782 784 791 795 790 777 766 765 769 774 781 785 789 793 793 794 796 796 798 799 799 800 801 801 803 804 806 808 810 812 813 814 816 817 819 820 820 822 823
772 768 762 753 748 745 743 740 737 731 726 731 742 749 749 746 756 779 782 770 777 782 777 784 790 786 787 788 789 787 777 768 769 774 781 785 789 794 794 794 796 797 799 801 802 803 803 804 805 805 805 807 808 811 813 814 816 817 818 820 820 821 822
765 759 757 753 749 747 743 741 739 735 728 731 741 744 739 738 755 782 782 771 782 786 779 786 790 785 783 782 781 783 780 774 771 773 779 782 785 790 793 794 795 797 798 800 803 807 806 806 807 806 807 809 809 811 813 814 816 817 817 818 819 820 821
767 761 758 754 750 749 747 740 735 735 735 733 732 731 730 732 744 762 768 771 783 784 777 779 781 777 777 777 776 779 782 782 778 774 777 780 781 784 788 791 793 795 797 799 803 807 807 808 808 809 810 811 812 814 815 816 817 817 817 818 818 820 821
775 764 756 753 751 751 751 747 742 743 746 745 739 730 727 733 743 753 763 775 784 781 774 775 775 774 775 776 778 783 785 788 787 782 781 783 785 787 789 790 792 794 797 800 803 806 808 809 809 811 813 814 814 815 816 817 817 817 818 818 819 820 821
780 764 763 766 757 751 757 763 763 763 763 764 761 751 744 748 754 758 767 781 787 781 776 776 775 775 777 778 780 785 788 791 794 792 791 792 794 794 794 793 793 795 798 800 804 806 807 809 810 812 814 815 816 816 816 817 817 818 818 818 819 820 821
784 765 769 777 772 775 783 781 775 775 775 773 771 767 763 761 760 765 774 780 780 776 776 779 781 783 785 784 782 784 789 793 795 795 795 798 798 795 796 796 796 798 800 803 806 807 808 810 812 814 815 815 816 815 816 817 817 818 819 819 820 820 821
792 775 769 777 796 812 804 784 775 777 779 780 780 779 776 772 770 774 779 779 774 774 778 782 788 792 791 790 787 786 789 793 796 797 797 798 797 796 797 798 799 801 803 806 808 809 811 813 815 816 816 816 816 816 816 817 818 818 819 820 820 821 822
789 782 780 797 819 817 792 775 774 775 776 778 781 782 781 781 782 783 786 787 782 780 785 789 793 795 792 789 790 789 790 792 795 798 797 795 796 797 798 800 802 804 806 809 811 813 815 816 817 818 818 817 817 817 817 818 818 819 820 821 821 822 822
788 791 804 818 816 797 783 782 779 775 777 780 786 794 791 787 790 793 795 796 787 783 790 793 793 792 789 788 791 792 792 792 793 795 796 796 797 799 800 802 804 806 808 811 814 816 818 819 820 820 819 819 819 819 819 820 820 820 821 822 823 823 823
794 798 812 816 808 801 800 795 783 778 782 783 791 805 803 792 792 796 801 803 796 790 795 796 791 788 788 793 796 794 792 793 793 794 796 798 800 801 802 804 805 806 809 812 816 819 820 821 821 821 821 821 821 821 822 822 822 821 821 822 824 824 825
796 801 813 815 818 821 811 796 784 778 780 778 780 797 807 801 796 797 800 806 804 799 799 797 790 789 797 805 805 798 795 795 796 797 799 800 803 803 804 806 806 807 808 810 814 819 822 823 822 821 822 822 822 823 823 824 824 823 823 823 824 825 826
797 808 819 819 825 827 810 795 786 779 780 778 776 795 811 804 795 798 801 804 806 805 805 801 795 798 809 815 810 802 800 799 799 800 801 802 805 806 807 808 809 810 810 809 811 815 819 822 823 823 823 823 822 823 824 825 826 825 825 825 825 825 826
796 806 819 823 827 821 802 791 786 780 780 779 788 815 822 801 792 800 802 802 805 806 807 809 809 811 814 814 809 803 800 800 802 803 804 805 806 807 808 810 811 812 813 812 812 814 817 820 822 823 823 822 823 823 824 826 826 827 828 828 827 827 827
794 801 813 824 827 813 795 789 785 778 780 788 805 824 816 795 793 798 798 801 804 802 803 807 810 812 809 806 806 803 801 801 803 804 806 808 808 809 810 812 813 814 815 816 816 816 818 820 822 824 824 824 824 824 825 826 827 828 830 830 829 829 829
804 807 813 827 829 809 791 789 783 776 791 810 814 808 797 791 794 794 795 800 800 798 800 801 802 804 803 803 805 804 803 803 803 804 806 808 810 812 812 813 814 815 817 818 818 819 821 822 824 824 825 826 826 826 826 827 828 830 831 831 831 831 831
813 818 820 831 833 809 789 790 790 787 799 810 804 793 791 794 794 793 797 799 796 797 800 799 799 801 800 802 804 804 804 803 802 805 807 807 810 812 813 814 815 816 818 819 820 822 823 824 825 825 827 827 827 828 828 828 829 830 831 832 832 832 833
815 824 820 818 816 801 788 793 799 796 794 794 791 791 794 795 794 795 797 798 797 798 799 799 801 801 801 802 803 803 804 804 803 806 808 808 810 812 813 815 816 818 820 821 822 824 825 825 826 827 828 829 829 830 831 831 832 831 831 832 833 833 834
806 812 807 800 798 794 790 792 795 793 790 788 788 792 794 795 796 797 797 798 797 797 798 801 802 802 802 803 802 803 805 804 805 808 809 810 811 812 813 816 818 820 822 822 824 826 826 827 828 829 830 831 831 831 832 833 834 834 833 833 834 834 835
795 798 797 793 793 796 793 792 793 792 791 791 791 793 796 796 797 796 797 799 799 797 799 802 803 804 805 804 804 804 804 805 807 809 810 811 812 813 814 817 819 821 823 824 826 827 828 829 830 830 831 832 832 833 834 834 835 836 836 835 835 835 835
797 801 799 793 795 797 795 795 796 794 794 794 794 796 798 797 796 797 797 798 799 799 800 802 805 807 806 806 807 806 805 807 809 809 811 813 814 815 816 818 820 822 823 825 826 827 829 830 830 831 833 833 834 835 835 835 836 837 837 837 836 835 835
795 800 797 791 793 794 792 794 796 796 796 797 794 795 797 797 797 798 797 798 799 799 801 802 804 807 807 808 809 809 810 811 811 811 813 814 815 817 818 819 821 823 824 826 828 828 829 830 831 832 833 834 835 835 835 836 837 837 838 838 837 836 836
795 797 795 793 795 796 794 795 796 796 797 797 796 796 797 797 799 800 799 800 800 800 801 802 803 806 809 809 809 810 812 813 814 815 816 816 818 820 820 821 823 824 826 828 829 829 830 831 832 833 834 834 835 835 836 837 837 837 838 838 837 837 836
799 795 793 795 798 800 799 797 798 797 797 798 799 800 800 801 802 802 802 802 802 802 802 802 803 807 809 809 810 812 814 815 816 817 818 818 820 821 822 823 825 826 828 829 829 830 832 832 833 834 834 835 836 836 836 837 837 837 838 837 837 837 837
795 791 790 792 794 798 799 798 798 798 797 799 802 803 803 804 804 803 804 805 805 805 805 804 805 807 808 809 812 814 816 816 817 818 819 820 821 822 823 824 826 827 829 830 830 831 832 832 834 834 835 835 836 836 837 837 837 838 838 837 837 837 837
789 789 790 790 792 796 798 797 798 799 799 800 803 804 804 805 805 805 806 807 807 808 807 807 808 808 809 810 812 814 816 817 817 818 819 820 821 822 823 824 826 828 829 830 831 832 833 833 834 834 835 836 836 836 837 838 838 838 838 838 837 838 838
787 788 789 789 792 795 796 796 798 800 800 801 803 805 806 807 807 807 807 808 808 809 809 809 810 811 811 811 812 813 815 817 818 819 819 819 820 821 822 824 826 828 829 830 831 832 833 833 834 834 835 835 836 837 837 838 838 838 838 838 838 838 838